FW4027 Weather Reports


time (UTC)temp
C
wind
direction
speed
KPH
gust
KPH
rain 1hr
cm
rain 24hr
cm
rain mn
cm
humidity
%
barometer
mb
20260508003618 16 329 3.2 4.8 0.00 0.00 0.00 53 1017.9
20260508003119 16 0 1.6 8.0 0.00 0.00 0.00 53 1017.9
20260508002618 16 351 3.2 8.0 0.00 0.00 0.00 53 1017.8
20260508002118 16 323 3.2 3.2 0.00 0.00 0.00 52 1017.8
20260508001618 16 321 3.2 4.8 0.00 0.00 0.00 52 1017.8
20260508001118 16 324 3.2 4.8 0.00 0.00 0.00 52 1017.7
20260508000618 16 343 3.2 6.4 0.00 0.00 0.00 52 1017.8
20260508000119 16 340 4.8 8.0 0.00 0.00 0.00 52 1017.8
20260507235839 16 307 4.8 8.0 0.00 0.00 0.00 53 1017.8
20260507235119 16 0 4.8 8.0 0.00 0.00 0.00 54 1017.9
20260507234618 16 296 4.8 6.4 0.00 0.00 0.00 54 1018.0
20260507234118 16 303 3.2 4.8 0.00 0.00 0.00 55 1018.1
20260507233847 16 309 3.2 4.8 0.00 0.00 0.00 55 1018.3
20260507233118 16 316 0.0 3.2 0.00 0.00 0.00 55 1018.3
20260507232618 16 299 1.6 4.8 0.00 0.00 0.00 56 1018.4
20260507232117 16 324 3.2 6.4 0.00 0.00 0.00 56 1018.3
20260507231838 16 338 4.8 6.4 0.00 0.00 0.00 56 1018.3
20260507231118 16 329 3.2 6.4 0.00 0.00 0.00 56 1018.3
20260507230616 16 312 3.2 4.8 0.00 0.00 0.00 56 1018.3
20260507230117 16 313 3.2 4.8 0.00 0.00 0.00 56 1018.5
20260507225617 16 313 3.2 3.2 0.00 0.00 0.00 56 1018.6
20260507225116 16 314 3.2 4.8 0.00 0.00 0.00 56 1018.6
20260507224617 16 314 1.6 4.8 0.00 0.00 0.00 56 1018.5
20260507224116 16 312 3.2 6.4 0.00 0.00 0.00 57 1018.7
20260507223616 16 321 3.2 6.4 0.00 0.00 0.00 57 1018.8
20260507223117 16 307 3.2 4.8 0.00 0.00 0.00 57 1018.8
20260507222617 16 329 1.6 4.8 0.00 0.00 0.00 57 1018.8
20260507222115 16 329 0.0 3.2 0.00 0.00 0.00 57 1018.7
20260507221616 16 330 1.6 4.8 0.00 0.00 0.00 57 1018.7
20260507221116 16 330 3.2 6.4 0.00 0.00 0.00 57 1018.6
20260507220616 16 317 3.2 6.4 0.00 0.00 0.00 57 1018.5
20260507220336 16 316 3.2 4.8 0.00 0.00 0.00 57 1018.5
20260507215616 16 313 3.2 4.8 0.00 0.00 0.00 58 1018.6
20260507215116 16 313 3.2 4.8 0.00 0.00 0.00 58 1018.6
20260507214837 16 314 0.0 4.8 0.00 0.00 0.00 58 1018.7
20260507214116 16 317 3.2 4.8 0.00 0.00 0.00 58 1018.7
20260507213616 16 319 0.0 3.2 0.00 0.00 0.00 58 1018.7
20260507213116 16 316 3.2 3.2 0.00 0.00 0.00 58 1018.8
20260507212616 16 321 0.0 4.8 0.00 0.00 0.00 58 1018.9
20260507212114 16 321 3.2 4.8 0.00 0.00 0.00 58 1018.9
20260507211615 16 323 0.0 6.4 0.00 0.00 0.00 58 1018.7
20260507211114 16 340 1.6 6.4 0.00 0.00 0.00 58 1018.7
20260507210839 16 0 3.2 6.4 0.00 0.00 0.00 57 1018.6
20260507210113 16 321 0.0 4.8 0.00 0.00 0.00 58 1018.5
20260507205614 16 306 1.6 6.4 0.00 0.00 0.00 58 1018.6
20260507205113 16 309 4.8 6.4 0.00 0.00 0.00 57 1018.7
20260507204613 16 314 0.0 0.0 0.00 0.00 0.00 58 1018.6
20260507204336 16 314 0.0 0.0 0.00 0.00 0.00 57 1018.8
20260507203614 16 314 0.0 0.0 0.00 0.00 0.00 57 1018.8
20260507203113 16 314 0.0 0.0 0.00 0.00 0.00 57 1018.7
20260507202841 16 314 0.0 0.0 0.00 0.00 0.00 57 1018.7
20260507202114 16 313 0.0 1.6 0.00 0.00 0.00 57 1018.6
20260507201612 17 313 0.0 4.8 0.00 0.00 0.00 57 1018.5
20260507201111 17 0 3.2 4.8 0.00 0.00 0.00 57 1018.5
20260507200613 17 316 0.0 0.0 0.00 0.00 0.00 57 1018.3
20260507200112 17 321 0.0 0.0 0.00 0.00 0.00 57 1018.4
20260507195838 17 321 0.0 0.0 0.00 0.00 0.00 57 1018.6
20260507195113 17 321 0.0 0.0 0.00 0.00 0.00 57 1018.6
20260507194612 17 321 0.0 0.0 0.00 0.00 0.00 57 1018.6
20260507194112 17 321 0.0 0.0 0.00 0.00 0.00 57 1018.5
20260507193612 17 321 0.0 0.0 0.00 0.00 0.00 57 1018.6
20260507193111 17 321 0.0 0.0 0.00 0.00 0.00 57 1018.7
20260507192611 17 321 0.0 0.0 0.00 0.00 0.00 57 1018.6
20260507192331 17 321 0.0 0.0 0.00 0.00 0.00 57 1018.6
20260507191611 17 314 0.0 0.0 0.00 0.00 0.00 57 1018.6
20260507191112 17 305 0.0 4.8 0.00 0.00 0.00 57 1018.7
20260507190611 17 303 0.0 4.8 0.00 0.00 0.00 57 1018.8
20260507190110 17 306 1.6 4.8 0.00 0.00 0.00 57 1018.8
20260507185611 17 321 1.6 4.8 0.00 0.00 0.00 57 1018.8
20260507185111 17 353 0.0 6.4 0.00 0.00 0.00 57 1018.8
20260507184611 17 351 3.2 6.4 0.00 0.00 0.00 57 1018.7
20260507184113 17 299 3.2 6.4 0.00 0.00 0.00 57 1018.8
20260507184105 17 264 0.0 4.8 0.00 0.00 0.00 57 1018.7
20260507183111 17 264 0.0 4.8 0.00 0.00 0.00 57 1018.6
20260507182610 17 231 0.0 0.0 0.00 0.00 0.00 57 1018.6
20260507182110 18 173 0.0 0.0 0.00 0.00 0.00 57 1018.7
20260507181610 18 172 0.0 0.0 0.00 0.00 0.00 57 1018.7
20260507181110 18 172 0.0 0.0 0.00 0.00 0.00 57 1018.6
20260507180610 18 171 0.0 0.0 0.00 0.00 0.00 57 1018.6
20260507180109 18 171 0.0 0.0 0.00 0.00 0.00 57 1018.6
20260507175609 18 171 0.0 0.0 0.00 0.00 0.00 57 1018.5
20260507175109 18 172 0.0 0.0 0.00 0.00 0.00 57 1018.6
20260507174609 18 171 0.0 0.0 0.00 0.00 0.00 57 1018.6
20260507174110 18 171 0.0 0.0 0.00 0.00 0.00 56 1018.5
20260507173839 19 171 0.0 1.6 0.00 0.00 0.00 57 1018.4
20260507173330 19 171 0.0 1.6 0.00 0.00 0.00 56 1018.4
20260507172610 20 171 0.0 1.6 0.00 0.00 0.00 57 1018.3
20260507172110 20 171 0.0 3.2 0.00 0.00 0.00 57 1018.4
20260507171609 20 171 0.0 3.2 0.00 0.00 0.00 57 1018.6
20260507171109 20 171 1.6 3.2 0.00 0.00 0.00 57 1018.5
20260507170621 20 171 0.0 0.0 0.00 0.00 0.00 56 1018.7
20260507170108 20 171 0.0 3.2 0.00 0.00 0.00 56 1018.5
20260507165608 20 171 0.0 4.8 0.00 0.00 0.00 56 1018.3
20260507165330 20 171 3.2 4.8 0.00 0.00 0.00 55 1018.3
20260507164609 20 171 0.0 0.0 0.00 0.00 0.00 55 1018.3
20260507164333 21 171 0.0 0.0 0.00 0.00 0.00 55 1018.4
20260507163606 21 171 0.0 0.0 0.00 0.00 0.00 54 1018.2
20260507163107 21 171 0.0 3.2 0.00 0.00 0.00 54 1018.2
20260507162608 21 171 1.6 4.8 0.00 0.00 0.00 53 1018.2
20260507162107 21 171 1.6 4.8 0.00 0.00 0.00 52 1018.2
20260507161829 21 171 1.6 4.8 0.00 0.00 0.00 51 1018.3
20260507161108 21 171 3.2 4.8 0.00 0.00 0.00 50 1018.3
20260507160608 21 169 0.0 4.8 0.00 0.00 0.00 48 1018.2
20260507160329 22 169 3.2 4.8 0.00 0.00 0.00 48 1018.4
20260507155607 22 175 3.2 4.8 0.00 0.00 0.00 46 1018.2
20260507155104 22 192 0.0 4.8 0.00 0.00 0.00 43 1018.3
20260507154606 21 0 0.0 3.2 0.00 0.00 0.00 42 1018.1
20260507154107 21 252 0.0 3.2 0.00 0.00 0.00 43 1018.1
20260507153606 21 252 0.0 4.8 0.00 0.00 0.00 45 1018.0
20260507153108 21 252 1.6 8.0 0.00 0.00 0.00 46 1018.1
20260507152605 21 210 1.6 8.0 0.00 0.00 0.00 47 1018.1
20260507152106 21 195 6.4 8.0 0.00 0.00 0.00 48 1018.1
20260507151607 22 221 3.2 8.0 0.00 0.00 0.00 48 1018.2
20260507151106 22 161 4.8 8.0 0.00 0.00 0.00 48 1018.3
20260507150604 22 183 3.2 9.7 0.00 0.00 0.00 47 1018.3
20260507150105 22 196 3.2 9.7 0.00 0.00 0.00 45 1018.2
20260507145605 21 207 6.4 9.7 0.00 0.00 0.00 43 1018.3
20260507145106 21 192 6.4 9.7 0.00 0.00 0.00 43 1018.2
20260507144833 22 243 4.8 9.7 0.00 0.00 0.00 42 1018.1
20260507144331 22 175 6.4 11.3 0.00 0.00 0.00 42 1018.2
20260507143604 22 228 8.0 11.3 0.00 0.00 0.00 42 1018.3
20260507143106 22 0 6.4 11.3 0.00 0.00 0.00 44 1018.2
20260507142605 22 220 3.2 11.3 0.00 0.00 0.00 45 1018.1
20260507142330 21 238 6.4 11.3 0.00 0.00 0.00 45 1018.2
20260507141606 21 182 4.8 11.3 0.00 0.00 0.00 45 1018.3
20260507141104 21 0 8.0 14.5 0.00 0.00 0.00 46 1018.3
20260507140605 21 257 4.8 14.5 0.00 0.00 0.00 50 1018.3
20260507140104 21 235 6.4 11.3 0.00 0.00 0.00 51 1018.2
20260507135826 20 233 6.4 11.3 0.00 0.00 0.00 52 1018.2
20260507135105 21 0 4.8 11.3 0.00 0.00 0.00 54 1018.3
20260507134604 21 0 4.8 16.1 0.00 0.00 0.00 55 1018.4
20260507134106 21 223 9.7 16.1 0.00 0.00 0.00 54 1018.5
20260507133604 21 190 4.8 11.3 0.00 0.00 0.00 55 1018.6
20260507133103 21 200 8.0 14.5 0.00 0.00 0.00 53 1018.6
20260507132603 21 214 8.0 16.1 0.00 0.00 0.00 51 1018.8
20260507132104 22 0 9.7 16.1 0.00 0.00 0.00 50 1018.7
20260507131604 22 0 4.8 16.1 0.00 0.00 0.00 50 1018.5
20260507131103 22 257 9.7 16.1 0.00 0.00 0.00 50 1018.3
20260507130605 22 166 6.4 14.5 0.00 0.00 0.00 50 1018.2
20260507125604 22 207 9.7 16.1 0.00 0.00 0.00 51 1018.6
20260507125102 22 0 9.7 16.1 0.00 0.00 0.00 52 1018.7
20260507124603 22 0 6.4 14.5 0.00 0.00 0.00 52 1018.8
20260507124102 22 0 8.0 14.5 0.00 0.00 0.00 51 1018.8
20260507123603 22 0 6.4 17.7 0.00 0.00 0.00 52 1018.9
20260507123103 22 185 9.7 17.7 0.00 0.00 0.00 50 1019.1
20260507122603 22 154 4.8 14.5 0.00 0.00 0.00 50 1019.0
20260507122104 22 172 3.2 16.1 0.00 0.00 0.00 51 1019.1
20260507122053 22 0 6.4 16.1 0.00 0.00 0.00 51 1018.9
20260507121101 22 192 9.7 16.1 0.00 0.00 0.00 51 1019.0
20260507120826 22 199 8.0 19.3 0.00 0.00 0.00 53 1019.0
20260507120103 22 0 8.0 19.3 0.00 0.00 0.00 53 1019.1
20260507120052 22 0 9.7 17.7 0.00 0.00 0.00 54 1019.0
20260507115103 22 220 8.0 19.3 0.00 0.00 0.00 54 1019.0
20260507114601 21 0 6.4 19.3 0.00 0.00 0.00 54 1018.9
20260507114101 21 0 6.4 17.7 0.00 0.00 0.00 53 1018.8
20260507113823 21 241 9.7 17.7 0.00 0.00 0.00 52 1018.8
20260507113100 21 151 6.4 17.7 0.00 0.00 0.00 51 1018.8
20260507112602 22 0 9.7 17.7 0.00 0.00 0.00 51 1018.8
20260507112334 22 0 9.7 17.7 0.00 0.00 0.00 51 1018.8
20260507111602 21 0 8.0 17.7 0.00 0.00 0.00 51 1018.8
20260507111100 21 0 9.7 17.7 0.00 0.00 0.00 52 1018.8
20260507110601 21 0 8.0 19.3 0.00 0.00 0.00 52 1018.7
20260507110100 21 0 12.9 20.9 0.00 0.00 0.00 51 1018.8
20260507105600 21 178 11.3 20.9 0.00 0.00 0.00 50 1018.7
20260507105100 21 0 14.5 20.9 0.00 0.00 0.00 49 1018.8
20260507104600 21 0 11.3 20.9 0.00 0.00 0.00 51 1018.8
20260507104100 22 0 11.3 17.7 0.00 0.00 0.00 50 1018.8
20260507103600 22 0 4.8 16.1 0.00 0.00 0.00 51 1018.8
20260507103059 22 0 9.7 16.1 0.00 0.00 0.00 51 1018.6
20260507102559 21 186 8.0 17.7 0.00 0.00 0.00 52 1018.6
20260507102322 21 186 11.3 17.7 0.00 0.00 0.00 50 1018.6
20260507101559 21 203 8.0 17.7 0.00 0.00 0.00 50 1018.6
20260507101058 21 0 8.0 22.5 0.00 0.00 0.00 49 1018.7
20260507100824 21 185 9.7 22.5 0.00 0.00 0.00 51 1018.8
20260507100058 21 165 8.0 17.7 0.00 0.00 0.00 51 1018.8
20260507095559 21 228 9.7 17.7 0.00 0.00 0.00 50 1018.9
20260507095328 21 221 8.0 19.3 0.00 0.00 0.00 49 1019.0
20260507094559 21 186 8.0 19.3 0.00 0.00 0.00 50 1019.1
20260507094058 21 0 8.0 17.7 0.00 0.00 0.00 51 1019.1
20260507093817 21 0 9.7 19.3 0.00 0.00 0.00 48 1019.0
20260507093057 21 0 11.3 19.3 0.00 0.00 0.00 48 1019.1
20260507092558 21 0 9.7 19.3 0.00 0.00 0.00 51 1019.1
20260507092058 20 197 8.0 17.7 0.00 0.00 0.00 52 1019.2
20260507091558 20 0 12.9 19.3 0.00 0.00 0.00 52 1019.2
20260507091057 20 0 11.3 19.3 0.00 0.00 0.00 53 1019.4
20260507090557 20 0 9.7 19.3 0.00 0.00 0.00 53 1019.4
20260507090326 20 0 11.3 17.7 0.00 0.00 0.00 54 1019.4
20260507085558 20 0 9.7 17.7 0.00 0.00 0.00 54 1019.4
20260507085057 20 0 9.7 17.7 0.00 0.00 0.00 54 1019.3
20260507084558 20 162 11.3 17.7 0.00 0.00 0.00 54 1019.3
20260507084046 20 200 8.0 17.7 0.00 0.00 0.00 55 1019.3
20260507083543 21 176 6.4 19.3 0.00 0.00 0.00 55 1019.2
20260507083314 20 231 8.0 19.3 0.00 0.00 0.00 56 1019.2
20260507082541 20 210 4.8 19.3 0.00 0.00 0.00 55 1019.2
20260507082309 20 0 8.0 17.7 0.00 0.00 0.00 55 1019.0
20260507081539 20 192 6.4 17.7 0.00 0.00 0.00 55 1018.9
20260507081303 20 169 8.0 17.7 0.00 0.00 0.00 56 1018.9
20260507080752 20 204 6.4 17.7 0.00 0.00 0.00 56 1018.9
20260507080036 20 0 8.0 17.7 0.00 0.00 0.00 56 1018.9
20260507075533 20 0 8.0 17.7 0.00 0.00 0.00 55 1019.0
20260507075031 20 0 8.0 17.7 0.00 0.00 0.00 55 1018.9
20260507074531 20 0 8.0 17.7 0.00 0.00 0.00 56 1019.0
20260507074032 20 0 9.7 17.7 0.00 0.00 0.00 56 1019.1
20260507073536 20 0 9.7 17.7 0.00 0.00 0.00 56 1019.0
20260507073024 20 0 8.0 17.7 0.00 0.00 0.00 57 1019.0
20260507072523 20 220 8.0 17.7 0.00 0.00 0.00 57 1018.8
20260507072024 20 0 9.7 17.7 0.00 0.00 0.00 57 1018.8
20260507071514 20 0 8.0 17.7 0.00 0.00 0.00 57 1018.8
20260507071014 20 0 6.4 16.1 0.00 0.00 0.00 57 1018.7
20260507070732 20 0 8.0 16.1 0.00 0.00 0.00 57 1018.6
20260507070014 20 179 9.7 17.7 0.00 0.00 0.00 56 1018.5
20260507065511 20 195 6.4 17.7 0.00 0.00 0.00 56 1018.3
20260507065013 20 0 6.4 16.1 0.00 0.00 0.00 56 1018.3
20260507064512 20 237 9.7 11.3 0.00 0.00 0.00 56 1018.0
20260507064009 20 179 6.4 16.1 0.00 0.00 0.00 56 1018.0
20260507063507 20 179 6.4 16.1 0.00 0.00 0.00 56 1018.0
20260507063006 20 196 6.4 14.5 0.00 0.00 0.00 55 1018.0
20260507062505 20 196 6.4 14.5 0.00 0.00 0.00 55 1018.0
20260507062003 20 180 3.2 11.3 0.00 0.00 0.00 56 1018.0
20260507061500 20 0 6.4 11.3 0.00 0.00 0.00 56 1017.9
20260507061000 20 186 3.2 9.7 0.00 0.00 0.00 56 1017.8
20260507060723 20 220 6.4 9.7 0.00 0.00 0.00 56 1017.9
20260507055958 19 226 3.2 11.3 0.00 0.00 0.00 56 1018.0
20260507055456 20 186 3.2 11.3 0.00 0.00 0.00 56 1017.9
20260507054953 19 231 3.2 9.7 0.00 0.00 0.00 56 1017.9
20260507054454 19 188 1.6 8.0 0.00 0.00 0.00 56 1017.9
20260507053953 18 0 4.8 6.4 0.00 0.00 0.00 56 1017.9
20260507053454 18 200 3.2 6.4 0.00 0.00 0.00 56 1018.0
20260507052953 18 182 1.6 4.8 0.00 0.00 0.00 56 1018.0
20260507052943 17 169 3.2 8.0 0.00 0.00 0.00 57 1017.9
20260507051953 16 180 0.0 8.0 0.00 0.00 0.00 57 1018.0
20260507051451 16 185 3.2 6.4 0.00 0.00 0.00 58 1017.9
20260507050952 16 31 0.0 0.0 0.00 0.00 0.00 60 1017.8
20260507050453 15 4 0.0 3.2 0.00 0.00 0.00 61 1017.7
20260507045952 15 4 1.6 4.8 0.00 0.00 0.00 61 1017.7
20260507045451 15 0 3.2 4.8 0.00 0.00 0.00 61 1017.7
20260507044951 14 0 3.2 6.4 0.00 0.00 0.00 62 1017.7
20260507044715 13 0 3.2 8.0 0.00 0.00 0.00 62 1017.6
20260507043951 13 338 4.8 9.7 0.00 0.00 0.00 63 1017.7
20260507043719 13 0 8.0 9.7 0.00 0.00 0.00 64 1017.6
20260507042952 13 0 4.8 8.0 0.00 0.00 0.00 64 1017.6
20260507042452 13 343 3.2 6.4 0.00 0.00 0.00 64 1017.7
20260507041952 13 316 3.2 4.8 0.00 0.00 0.00 64 1017.7
20260507041451 13 319 3.2 6.4 0.00 0.00 0.00 64 1017.6
20260507040950 13 316 4.8 6.4 0.00 0.00 0.00 64 1017.6
20260507040450 12 0 3.2 4.8 0.00 0.00 0.00 63 1017.6
20260507035950 12 317 3.2 4.8 0.00 0.00 0.00 64 1017.7
20260507035450 12 321 1.6 4.8 0.00 0.00 0.00 63 1017.7
20260507034950 12 323 0.0 4.8 0.00 0.00 0.00 63 1017.6
20260507034451 12 0 3.2 4.8 0.00 0.00 0.00 63 1017.6
20260507034213 12 303 3.2 4.8 0.00 0.00 0.00 63 1017.4
20260507033449 12 310 0.0 4.8 0.00 0.00 0.00 63 1017.4
20260507032949 12 306 1.6 4.8 0.00 0.00 0.00 63 1017.3
20260507032449 12 300 3.2 4.8 0.00 0.00 0.00 63 1017.2
20260507031950 12 313 0.0 4.8 0.00 0.00 0.00 63 1017.2
20260507031450 12 312 3.2 6.4 0.00 0.00 0.00 63 1017.3
20260507030950 11 0 4.8 6.4 0.00 0.00 0.00 62 1017.1
20260507030449 11 312 3.2 4.8 0.00 0.00 0.00 62 1017.0
20260507030211 12 316 1.6 4.8 0.00 0.00 0.00 62 1017.0
20260507025449 11 317 3.2 4.8 0.00 0.00 0.00 62 1017.0
20260507024950 12 327 1.6 3.2 0.00 0.00 0.00 62 1016.9
20260507024713 12 327 0.0 4.8 0.00 0.00 0.00 62 1016.7
20260507024429 12 323 3.2 6.4 0.00 0.00 0.00 62 1016.6
20260507023448 12 0 4.8 6.4 0.00 0.00 0.00 62 1016.7
20260507022948 12 319 3.2 6.4 0.00 0.00 0.00 62 1016.6
20260507022710 12 0 3.2 6.4 0.00 0.00 0.00 62 1016.6
20260507021950 12 306 3.2 6.4 0.00 0.00 0.00 62 1016.7
20260507021449 12 334 1.6 4.8 0.00 0.00 0.00 62 1016.6
20260507021211 12 0 3.2 6.4 0.00 0.00 0.00 62 1016.7
20260507020449 12 0 4.8 6.4 0.00 0.00 0.00 62 1016.7
20260507015948 12 331 1.6 6.4 0.00 0.00 0.00 62 1016.7
20260507015448 12 0 3.2 6.4 0.00 0.00 0.00 62 1016.7
20260507014948 12 305 4.8 6.4 0.00 0.00 0.00 62 1016.6
20260507014448 11 314 4.8 6.4 0.00 0.00 0.00 62 1016.6
20260507014433 11 0 3.2 6.4 0.00 0.00 0.00 62 1016.8
20260507013448 11 0 4.8 6.4 0.00 0.00 0.00 62 1016.7
20260507012948 11 0 4.8 6.4 0.00 0.00 0.00 62 1016.6
20260507012719 11 306 3.2 4.8 0.00 0.00 0.00 62 1016.7
20260507012212 11 306 3.2 4.8 0.00 0.00 0.00 63 1016.7
20260507011710 12 0 3.2 6.4 0.00 0.00 0.00 63 1016.6
20260507010946 12 306 3.2 6.4 0.00 0.00 0.00 62 1016.5
20260507010447 12 321 3.2 6.4 0.00 0.00 0.00 63 1016.5
20260507005946 12 316 4.8 6.4 0.00 0.00 0.00 63 1016.5
20260507005446 12 0 4.8 6.4 0.00 0.00 0.00 62 1016.5
20260507004947 12 0 3.2 4.8 0.00 0.00 0.00 63 1016.5
20260507004446 12 334 1.6 6.4 0.00 0.00 0.00 63 1016.5
20260507003945 13 334 3.2 8.0 0.00 0.00 0.00 63 1016.5